Temp
26 26 26 25 25 25 25 25 25 25 25 25 25 25 25 26 26 26 26 26 26 26 25 26 26 26 26 26 26 26 26 25 25 25 25 25 25 25 25 25 25 25 25 25 25 25 25 25 25 25 25 25 25 25 26 25 25 25 25 25 25 25 25 24 25 26 26 26 26 26 27 26 26 26 26 26 26 25 25 25 25 24 24 24 25
27 26 26 26 25 25 25 25 25 25 25 25 25 25 25 25 26 26 26 26 26 26 26 26 26 26 26 26 26 26 26 25 25 25 25 25 25 25 25 25 25 25 25 25 25 25 25 25 25 25 25 25 25 25 26 26 26 26 26 25 25 25 25 25 25 25 26 26 26 26 26 26 26 26 25 25 25 25 25 25 25 24 24 24 25
27 26 26 26 26 25 26 26 25 25 25 26 26 26 26 26 25 25 26 26 26 26 26 26 26 25 25 26 25 25 25 25 25 25 25 25 25 25 26 25 25 25 25 25 25 25 25 25 25 25 25 25 25 25 26 26 26 26 26 26 26 26 25 25 25 25 25 26 26 26 26 26 26 26 25 25 25 25 25 25 25 25 25 25 25
28 27 26 26 26 26 26 26 26 26 26 26 26 27 27 26 26 25 26 26 26 26 26 26 26 25 25 25 25 25 25 25 25 25 25 25 25 25 26 25 25 25 25 25 25 25 25 25 25 26 26 25 25 25 25 26 26 25 25 25 25 25 25 25 24 25 25 25 25 25 25 25 25 25 25 25 25 24 24 25 25 25 25 25 25
28 27 27 27 27 26 26 26 26 26 27 27 27 27 27 27 26 26 26 27 27 26 26 26 25 25 25 25 25 25 25 25 25 25 25 25 25 25 25 25 25 25 25 25 25 25 25 25 26 26 26 25 25 25 25 25 25 25 25 25 25 25 25 25 25 25 25 25 25 25 25 25 25 25 25 25 25 25 25 24 24 24 25 25 24
29 28 27 27 27 26 26 26 27 27 27 27 28 28 28 28 27 26 26 27 27 27 26 26 25 25 25 25 25 25 25 25 25 25 26 26 25 25 26 26 25 25 25 25 25 25 25 25 26 26 25 25 26 26 26 25 25 25 25 25 25 25 25 25 25 25 25 25 25 25 25 25 25 25 25 25 25 25 25 25 24 24 24 24 24
29 28 28 28 28 27 26 26 27 27 27 27 28 28 28 28 28 27 27 27 27 27 27 26 26 25 25 25 25 25 25 25 25 25 25 26 25 25 26 26 26 26 25 26 26 26 26 26 26 26 25 25 25 26 25 25 25 25 25 25 25 25 25 25 25 25 25 25 25 26 26 26 26 26 26 25 25 25 25 25 25 24 24 24 24
29 28 28 28 28 27 27 26 27 27 27 27 28 28 28 28 28 28 27 27 27 28 28 27 26 26 26 26 26 25 25 25 25 25 25 25 26 25 25 26 26 26 26 26 26 26 27 26 26 26 26 26 25 25 25 25 25 25 25 25 25 25 25 25 25 26 26 26 26 26 26 26 26 26 26 26 26 26 25 25 25 24 24 24 23
29 29 28 28 28 27 27 26 26 27 27 27 27 27 28 28 28 27 27 27 28 28 28 28 27 26 26 26 26 26 25 25 25 25 25 25 25 26 25 25 26 26 26 26 26 27 27 27 27 27 26 26 25 25 25 25 25 25 25 25 25 25 25 25 25 26 26 26 26 26 26 26 27 27 27 27 27 26 26 25 25 24 24 23 23
29 29 28 28 28 27 26 26 26 26 27 27 26 27 27 27 27 27 27 27 27 27 28 28 27 27 26 26 26 26 26 26 25 25 25 25 25 26 26 25 26 26 26 26 26 27 27 27 28 27 27 26 25 26 25 25 25 25 25 25 25 25 25 25 25 25 26 26 26 26 27 27 27 27 27 27 27 26 25 24 24 24 23 23 23
29 29 28 28 27 27 26 26 26 26 26 26 26 26 27 27 27 27 27 27 27 27 27 27 27 27 27 26 26 26 26 26 25 25 25 25 25 25 26 26 25 25 26 26 26 27 27 27 28 27 27 26 26 26 26 25 25 25 26 25 25 24 24 25 25 26 26 26 26 26 27 27 27 26 26 27 26 25 24 23 23 22 22 23 23
29 28 28 28 27 26 26 26 26 26 26 26 26 26 26 27 27 26 26 26 26 26 26 27 27 27 27 27 27 26 26 26 25 25 25 25 25 25 25 26 26 26 26 26 26 27 27 27 28 28 27 26 26 26 25 25 25 25 25 25 25 24 24 24 24 24 25 25 26 26 26 26 26 26 26 25 24 23 22 22 21 21 21 22 23
28 28 28 27 27 26 26 26 26 26 26 26 25 26 26 26 26 26 26 26 26 26 26 26 26 27 27 27 27 27 27 26 25 25 25 25 25 25 25 26 26 26 26 26 26 26 26 27 27 27 27 27 26 25 25 25 25 25 25 24 24 24 24 23 23 23 23 24 24 25 25 25 25 25 25 24 23 23 22 21 21 21 22 22 23
28 28 28 27 27 26 26 26 26 26 25 25 25 25 25 26 26 26 26 26 26 26 26 26 26 26 26 26 27 27 27 26 25 25 25 25 25 25 25 25 26 26 26 26 26 26 26 26 26 26 27 27 26 26 25 25 25 25 24 24 24 24 24 24 24 24 23 23 23 23 24 24 24 24 24 23 23 23 22 21 21 21 22 22 22
28 28 27 27 27 26 26 26 26 26 25 25 25 25 25 25 26 26 27 26 26 25 26 26 26 25 26 26 26 26 26 26 25 25 25 25 25 25 24 24 25 26 26 26 26 26 26 26 26 26 26 26 26 26 25 25 25 25 25 25 25 25 26 26 25 25 24 24 23 23 23 23 23 23 23 22 22 23 22 21 21 21 21 21 21
28 28 27 27 27 27 27 26 26 26 26 25 25 25 25 25 25 26 27 27 26 26 26 26 26 26 26 26 26 26 26 26 25 25 25 24 24 24 23 24 25 25 25 25 25 25 25 25 25 26 26 26 26 25 25 25 25 25 25 25 25 26 26 26 26 25 25 25 24 24 24 24 24 23 23 22 22 22 22 21 20 20 20 21 22
28 28 27 28 27 27 27 26 26 26 26 26 26 25 25 25 25 26 26 27 27 26 26 26 26 26 26 26 26 26 27 26 25 25 25 24 24 23 23 23 24 24 25 25 25 25 25 25 25 25 25 25 25 25 24 24 24 24 25 25 25 26 26 27 27 26 26 25 25 24 24 24 23 23 23 22 22 21 21 21 21 22 22 23 24
28 28 28 28 28 27 27 27 26 26 26 26 26 26 26 25 25 25 26 27 27 27 27 27 27 27 27 26 26 26 27 27 26 25 25 24 24 23 23 23 23 24 24 25 25 25 25 25 25 25 25 25 25 25 24 24 24 24 24 25 25 26 26 27 27 27 26 25 24 24 24 23 23 23 23 22 23 22 21 21 22 23 24 24 24
28 28 28 28 28 27 27 27 26 26 26 26 26 26 26 26 26 26 26 27 27 28 27 27 27 27 27 27 27 26 27 27 26 25 25 24 24 23 23 23 24 24 24 24 25 25 25 25 25 24 25 25 24 24 24 24 23 24 24 25 25 26 26 26 26 26 25 24 24 24 24 24 23 23 23 23 23 22 21 22 23 23 24 24 24
28 28 28 28 28 27 27 27 26 27 26 26 26 26 26 26 26 26 26 27 27 27 27 27 27 27 27 27 27 26 27 27 26 26 25 25 24 24 23 24 24 24 25 25 25 25 25 25 25 24 24 24 24 24 24 24 24 24 24 25 25 25 26 26 25 24 23 23 23 23 23 23 24 24 24 24 24 23 23 23 24 24 24 24 24
28 28 28 28 28 27 27 27 27 27 27 26 27 26 26 27 27 26 26 27 27 27 27 27 27 27 27 27 27 27 27 27 26 26 25 25 24 24 23 24 24 25 25 25 25 25 25 25 25 25 24 24 25 25 24 24 24 23 23 24 24 24 24 24 24 23 22 22 22 23 24 24 25 25 25 25 25 24 24 24 24 23 23 23 23
28 28 28 28 28 28 28 27 27 27 27 27 27 26 26 27 27 26 27 27 27 27 27 27 27 28 28 28 28 27 27 27 26 26 25 25 25 24 24 24 24 25 25 25 25 26 26 26 26 26 25 25 25 25 25 24 24 23 23 23 23 23 23 23 23 22 22 22 23 24 24 25 25 25 25 25 25 24 23 23 23 22 22 22 21
28 28 28 28 28 28 28 27 27 27 27 27 26 26 26 26 26 26 26 27 27 26 26 27 27 27 28 28 28 27 27 27 26 26 25 25 24 24 24 24 24 24 25 26 26 26 26 26 26 26 25 25 25 25 24 24 23 23 23 23 23 23 22 22 22 22 22 22 23 23 24 24 25 25 24 24 23 23 22 22 21 21 21 20 20
28 27 27 28 28 28 28 27 27 27 27 27 26 26 26 26 26 26 26 26 26 26 26 26 27 27 28 28 28 28 28 27 26 26 25 25 24 24 24 24 23 23 24 25 26 26 26 26 26 26 25 24 24 24 24 23 23 23 23 23 22 22 21 21 21 21 21 22 22 23 24 24 24 24 23 22 22 22 21 21 21 20 20 19 19
28 28 28 28 28 28 28 27 27 27 27 27 26 26 26 26 26 26 26 26 26 27 27 27 27 27 28 28 28 28 28 28 27 26 26 25 24 24 24 24 23 23 23 24 25 26 26 26 26 25 25 24 24 24 23 23 23 23 23 22 22 21 21 20 21 21 21 22 23 24 24 24 23 22 22 22 21 21 21 20 20 20 19 19 19
28 28 28 28 28 28 28 28 28 27 27 27 26 26 26 26 26 26 26 26 27 27 27 27 27 28 28 28 28 29 29 28 28 27 26 25 25 24 23 23 23 23 23 23 24 24 24 24 24 24 24 23 23 23 23 23 23 22 22 22 21 21 20 21 21 21 22 23 24 24 24 23 22 22 22 21 21 20 20 20 20 20 20 20 19
28 28 28 28 28 28 28 28 28 28 27 27 27 27 27 27 27 26 26 27 27 27 27 28 28 28 28 28 29 29 29 28 28 28 26 25 24 24 23 23 23 23 22 22 23 23 23 23 23 23 23 23 22 22 22 22 22 22 22 21 21 21 21 21 22 22 22 23 23 23 23 22 21 21 21 21 21 21 20 20 19 20 20 19 19
28 28 28 28 28 28 28 28 28 28 28 28 27 27 27 27 27 27 27 27 27 28 28 28 28 29 29 29 29 29 29 29 29 28 27 26 25 24 23 23 22 22 22 22 22 22 22 22 22 22 21 22 21 21 21 21 21 21 21 21 21 21 21 21 21 21 22 22 22 22 21 21 21 21 21 22 21 20 20 19 19 19 19 19 20
28 28 28 28 28 28 28 28 29 29 28 28 28 28 28 28 28 27 27 27 27 28 28 28 28 29 29 29 29 29 29 29 29 28 27 27 26 24 24 23 23 23 23 23 22 23 22 21 22 22 22 22 22 21 21 20 20 20 20 20 20 20 21 22 22 21 21 21 21 21 21 22 22 21 22 22 21 20 20 19 19 19 19 20 21
28 28 28 29 29 28 28 29 29 29 29 29 28 27 27 27 28 28 27 27 27 27 28 28 28 29 29 29 29 29 29 29 28 28 27 27 26 25 25 24 24 24 24 23 23 23 23 22 23 23 23 23 23 22 21 21 21 20 20 20 21 21 22 22 22 22 22 21 22 22 22 22 22 21 22 21 21 20 20 19 19 19 19 20 21
28 28 29 29 29 28 29 29 29 29 29 29 28 27 26 26 26 27 27 27 26 27 27 27 27 28 28 28 28 27 27 27 27 27 27 26 26 25 25 24 24 24 24 23 22 23 23 23 24 24 23 23 23 23 22 21 21 20 20 20 21 22 23 23 22 22 22 22 22 22 21 21 21 21 21 21 21 20 20 20 20 20 20 20 21
28 29 29 29 29 28 29 29 29 29 29 29 29 28 26 26 25 25 25 26 26 26 26 26 26 27 27 27 26 26 26 26 26 26 25 25 25 24 24 24 24 24 23 23 23 23 24 24 24 24 24 23 23 23 22 21 20 20 21 22 22 23 23 22 21 21 22 22 22 22 21 21 21 21 21 21 20 20 21 21 21 20 20 21 21
28 28 28 28 28 28 28 28 28 28 29 29 29 28 28 27 26 25 23 23 24 24 24 25 25 25 25 26 26 25 25 25 25 25 25 24 24 24 24 23 23 23 22 22 23 24 24 24 24 24 24 24 23 22 21 21 21 22 22 23 23 22 22 21 20 21 21 21 21 22 22 21 21 21 21 21 21 21 21 21 21 21 21 21 21
28 28 28 28 27 27 27 28 28 28 28 28 28 28 28 28 28 27 25 23 23 23 23 23 23 23 24 24 24 24 24 24 24 24 24 24 23 23 23 22 22 22 21 22 23 24 24 24 24 24 24 23 23 22 22 22 23 23 23 23 22 21 20 20 20 20 21 21 21 21 21 21 21 21 21 21 21 21 21 21 21 21 21 21 21
27 27 26 27 27 27 27 27 28 28 28 28 28 28 28 28 28 28 27 26 25 24 22 21 21 21 22 22 23 23 24 24 23 23 23 23 23 23 22 21 20 20 20 21 22 23 24 24 24 23 23 22 21 21 21 22 22 22 22 21 21 20 19 20 20 20 20 21 21 21 21 21 21 21 21 21 21 21 21 21 21 21 21 20 20
28 27 27 27 28 28 28 28 28 28 27 27 27 27 28 28 28 28 28 27 27 25 21 19 19 20 20 21 22 22 22 23 23 23 23 22 22 22 21 21 21 20 20 21 21 22 22 22 22 21 21 21 20 20 20 20 20 20 20 20 20 20 20 20 20 19 19 20 21 20 20 20 21 21 21 21 21 21 21 21 21 21 20 20 20
28 28 28 27 27 27 27 27 26 26 26 26 27 27 28 28 28 28 28 27 26 22 19 17 17 18 18 19 20 21 21 21 21 21 21 20 20 20 20 21 21 20 19 19 19 19 19 19 19 19 19 19 19 19 19 19 19 19 19 19 19 20 20 20 20 19 19 20 20 20 20 20 21 20 21 21 21 21 21 21 21 21 20 20 20
24 25 26 26 26 26 25 25 24 25 25 26 26 26 27 27 27 27 26 24 22 20 18 17 16 16 16 17 18 19 20 20 19 19 18 18 18 19 19 20 19 18 18 17 18 18 18 17 17 18 18 18 18 18 18 18 18 18 18 18 18 18 19 19 19 18 19 20 20 20 20 20 20 20 21 21 21 21 21 21 21 21 21 20 21
23 23 24 24 25 25 24 23 23 24 24 25 25 25 25 25 25 25 23 21 20 19 18 17 15 15 15 16 17 18 19 18 17 17 16 16 17 18 18 18 17 17 16 16 16 17 17 17 17 17 17 17 17 17 17 18 18 18 18 18 18 18 19 19 19 19 19 20 20 20 20 20 20 20 20 21 21 21 21 21 21 21 21 21 21
23 22 22 23 24 24 24 23 23 23 24 23 23 23 23 23 22 22 21 20 19 18 17 16 15 15 15 16 17 18 18 18 18 17 17 17 17 17 17 16 16 16 16 16 16 16 16 16 16 16 16 16 16 16 16 17 17 17 17 18 19 19 19 19 19 19 20 20 20 20 20 20 20 20 20 21 21 20 20 20 20 20 20 20 20
22 22 22 22 23 23 23 22 22 22 22 21 21 20 20 19 19 18 18 17 16 16 16 16 15 15 16 16 16 17 18 18 18 18 17 17 16 17 17 16 16 16 16 16 16 15 15 15 15 15 15 15 15 15 16 16 16 17 17 18 19 19 19 20 20 20 20 20 20 20 20 20 20 20 20 20 20 20 20 20 21 21 21 21 21
22 21 22 22 22 22 21 21 20 19 19 19 19 18 17 17 17 16 16 15 15 15 15 15 15 15 15 15 16 16 17 16 16 16 16 15 15 15 15 15 16 16 16 16 15 15 15 15 14 15 15 15 15 15 16 16 17 17 18 18 19 20 20 20 20 20 20 20 20 20 20 20 20 20 20 20 20 20 21 21 21 21 21 21 21
21 21 21 20 20 20 20 19 19 18 18 17 17 17 16 16 16 15 15 15 15 15 15 14 14 14 14 15 15 15 15 15 15 15 14 13 13 13 13 13 14 14 14 14 14 14 14 14 14 15 15 14 14 15 15 16 16 17 18 18 19 20 20 20 20 19 19 20 20 20 20 20 19 20 20 20 20 20 21 21 21 21 21 21 21
21 20 19 19 18 18 18 18 18 17 17 16 16 16 16 16 15 15 15 15 15 14 14 14 14 14 14 14 15 15 15 15 15 14 13 12 12 12 12 13 13 12 13 13 13 13 14 15 15 15 15 15 15 15 15 15 15 16 16 17 17 17 18 18 18 17 18 18 19 19 19 19 19 20 20 20 20 20 21 21 21 21 21 21 21
20 19 18 17 17 16 17 17 17 16 16 17 17 16 16 16 15 15 14 14 14 13 13 13 13 13 14 14 14 14 14 14 13 13 12 12 12 12 12 12 12 12 13 12 13 13 14 14 13 13 13 14 14 14 15 15 15 15 15 15 16 16 16 16 16 16 16 17 17 18 19 19 19 20 20 20 20 20 20 21 21 21 21 20 21
18 18 17 16 15 15 15 15 15 15 16 16 16 16 16 15 15 14 14 14 14 13 13 13 13 14 14 14 14 14 13 13 13 13 13 12 12 12 12 12 12 12 12 12 12 12 12 12 13 13 13 13 13 13 14 14 14 15 15 15 15 15 16 16 16 16 15 15 16 17 18 18 19 19 19 19 19 20 20 20 20 20 20 20 20
17 16 15 15 14 14 14 14 14 14 14 13 13 14 14 13 13 14 13 13 13 13 12 12 13 13 13 13 13 13 13 13 12 12 12 12 12 12 11 11 11 11 11 11 11 11 11 12 12 12 12 12 12 13 13 13 13 14 14 15 15 15 15 15 16 16 15 15 15 16 17 18 18 19 18 18 19 19 19 19 19 20 20 20 20
16 15 15 14 14 14 13 13 13 13 12 12 12 12 12 12 12 12 12 12 12 12 12 12 12 12 12 12 12 12 12 12 12 11 11 11 11 10 10 10 10 10 10 11 11 11 11 12 12 12 12 12 12 12 12 13 13 13 13 13 14 14 14 14 15 15 15 15 15 15 16 17 17 17 17 17 18 18 18 19 19 19 19 19 19
15 15 14 14 13 13 13 13 12 12 12 12 12 12 11 11 11 11 11 11 11 11 11 11 11 11 11 11 11 12 12 11 11 10 10 10 10 10 10 10 10 11 11 11 11 11 12 12 12 12 12 12 12 12 12 12 12 13 13 13 13 13 13 13 14 14 14 14 14 15 16 16 16 16 17 17 17 17 18 18 18 18 18 19 19
12 12 12 11 11 11 11 11 11 12 12 12 12 11 11 11 11 10 10 10 10 10 10 10 10 10 10 10 10 10 11 11 10 10 9 9 9 9 10 11 11 11 11 11 11 12 12 12 12 12 12 12 12 12 11 11 12 12 12 12 12 12 12 13 13 13 13 14 14 14 14 14 15 15 16 16 16 16 16 16 16 17 17 18 18
9 9 9 9 9 9 9 9 10 10 10 11 11 10 10 10 10 10 10 9 9 9 9 9 9 9 9 9 9 8 8 9 9 8 8 8 8 9 10 11 11 11 11 11 11 11 11 11 11 11 11 11 11 10 10 10 10 10 10 10 11 11 11 12 12 12 13 13 13 13 13 13 13 13 13 13 14 14 14 14 14 15 15 16 16
Height
775 779 783 787 790 793 797 800 803 806 809 811 814 816 818 820 823 825 827 829 831 833 835 837 839 840 842 844 845 847 848 849 851 852 853 854 854 855 856 857 857 858 859 860 860 861 862 862 863 863 863 864 864 865 865 865 866 866 867 867 866 867 866 866 865 862 861 861 859 858 857 857 856 855 855 853 852 851 848 846 844 842 841 839 837
769 774 778 782 786 789 793 796 800 803 805 808 810 813 815 817 820 822 824 826 828 830 832 833 836 838 839 841 843 844 846 847 848 850 851 851 852 853 854 855 855 856 857 858 858 859 860 860 861 861 862 862 863 863 863 863 864 864 864 865 864 864 864 864 863 860 858 858 857 856 855 855 853 853 852 850 849 848 846 843 841 839 838 835 833
765 769 774 778 781 785 789 792 796 799 802 804 807 809 812 814 817 819 821 823 825 827 829 831 833 834 836 838 840 841 843 844 846 847 848 849 850 851 852 852 853 854 855 855 856 857 858 858 859 859 860 860 860 861 861 861 862 862 862 863 862 862 862 862 861 859 857 855 855 854 853 852 851 850 849 848 846 844 842 840 838 837 834 832 829
761 765 769 773 777 781 785 788 792 795 797 800 803 806 808 811 813 815 818 820 822 824 826 828 830 831 833 835 836 838 840 841 843 844 845 846 847 848 849 850 851 851 852 853 854 855 855 856 856 857 857 858 858 859 859 859 860 860 860 860 860 860 860 859 858 857 856 854 853 852 851 850 849 848 847 845 844 842 839 837 835 833 830 828 826
756 760 764 769 773 777 780 784 787 790 793 796 799 802 805 807 810 812 814 817 819 820 822 824 826 828 829 831 833 835 836 838 839 841 842 843 844 845 846 848 848 849 850 850 851 852 853 853 854 854 855 855 856 856 857 857 857 858 858 858 858 858 857 857 856 856 854 853 851 850 850 848 847 846 845 844 842 840 838 835 832 830 826 825 824
751 755 760 764 768 772 776 779 783 786 789 792 795 798 801 803 806 808 810 813 815 817 819 821 823 824 826 828 830 831 833 835 836 838 839 840 841 843 844 845 846 846 847 848 849 849 850 850 851 852 852 852 853 854 854 855 855 855 855 855 855 855 855 855 854 853 853 851 850 849 847 846 845 844 843 843 842 840 837 834 830 827 824 822 822
747 751 755 759 763 767 770 774 778 781 785 788 791 794 797 799 802 804 807 809 812 814 815 817 819 820 822 824 826 828 829 831 833 834 836 837 839 840 841 842 843 844 844 845 846 846 847 848 848 849 849 849 850 851 852 853 853 853 853 853 853 853 853 852 852 851 850 849 848 846 845 844 844 842 842 841 840 839 836 832 828 824 822 820 819
743 747 751 754 758 761 765 770 774 777 781 785 788 791 793 796 798 801 803 806 808 810 812 814 815 817 819 821 823 824 826 827 829 830 832 834 835 837 838 839 840 841 841 842 843 844 844 845 845 846 846 846 847 848 849 850 850 850 850 850 851 851 850 850 849 849 848 847 846 845 844 843 842 840 839 838 837 836 833 830 825 822 820 818 817
738 742 746 749 753 757 761 766 770 774 778 781 784 787 790 793 795 798 800 802 804 806 808 810 812 814 815 817 819 821 822 823 824 826 828 830 832 833 835 836 837 838 839 839 840 841 841 842 842 843 843 843 844 845 846 847 848 848 848 848 848 848 848 848 847 847 846 845 844 843 842 841 840 838 837 835 834 832 830 827 823 820 818 816 814
734 738 741 745 749 754 758 762 766 770 774 777 780 784 787 790 792 794 797 799 801 803 805 807 809 810 812 813 815 817 818 819 820 822 824 826 828 830 832 833 834 835 836 836 837 838 838 839 839 840 840 840 841 841 842 843 844 844 844 845 845 845 845 845 845 844 844 843 842 841 840 839 837 836 834 831 830 830 828 825 822 819 818 814 810
729 733 737 741 746 750 754 758 762 766 770 773 777 780 783 786 788 791 793 795 798 800 802 804 805 807 808 810 811 812 813 814 816 817 820 822 825 827 828 829 830 831 832 833 834 834 835 836 836 837 837 837 837 837 838 839 840 840 840 841 842 842 843 843 842 842 842 841 840 840 838 837 836 835 832 828 826 827 827 824 821 819 818 815 809
726 730 734 738 742 746 750 755 758 762 766 769 773 776 780 783 785 788 790 792 794 796 798 800 802 803 805 806 807 808 809 810 812 814 816 818 821 824 825 826 827 828 829 829 830 831 832 832 833 834 834 834 834 835 835 835 835 836 836 837 838 838 839 839 840 840 839 839 838 838 837 836 835 834 831 826 823 823 825 823 821 819 816 814 809
723 728 731 735 738 742 747 751 755 758 762 766 770 773 776 779 781 784 786 788 791 793 795 797 798 800 802 803 804 805 806 807 808 810 812 814 817 820 822 823 824 824 825 826 827 828 828 829 830 830 831 831 832 832 832 832 832 832 833 833 833 834 834 835 836 836 837 837 837 837 836 835 834 833 832 827 821 819 820 820 819 817 813 810 808
720 724 728 731 735 739 743 747 751 755 758 762 766 769 772 775 777 780 783 785 787 789 791 793 795 797 798 800 801 802 803 804 804 806 809 811 813 816 818 820 820 821 822 823 823 824 825 826 826 827 828 828 829 829 829 830 830 830 830 830 830 830 830 831 832 832 833 834 834 834 834 833 833 832 832 830 824 818 817 817 815 813 809 806 805
717 721 725 728 732 736 739 743 747 751 755 759 762 765 768 771 774 777 779 781 783 785 787 790 791 793 795 796 798 799 799 800 801 803 805 807 810 812 814 816 817 818 818 819 820 821 821 822 823 823 824 825 825 826 826 827 828 828 828 828 827 827 828 828 828 828 829 830 830 830 830 831 831 830 830 831 827 820 817 816 814 811 807 803 800
714 717 721 724 728 732 735 740 744 748 752 755 758 761 764 767 770 773 775 778 780 782 784 786 787 789 791 792 794 795 796 797 798 800 802 804 807 809 811 813 814 814 815 816 816 817 818 819 819 820 821 821 821 822 823 825 826 826 825 825 825 825 826 826 827 827 827 827 827 827 827 828 828 827 827 828 826 821 818 815 812 810 807 802 797
709 712 716 720 724 728 732 736 740 744 748 751 754 757 760 763 766 769 772 774 776 778 780 781 783 785 786 788 789 791 792 793 794 796 799 801 804 806 808 809 810 811 811 812 813 814 814 815 816 816 817 818 818 819 820 822 823 823 823 822 822 822 823 824 824 824 824 824 824 824 825 824 824 824 823 823 822 820 818 815 811 809 806 802 796
704 707 711 715 719 724 728 732 736 740 743 746 750 753 757 760 763 765 768 770 772 774 776 777 779 780 782 783 785 786 788 789 790 792 795 797 800 803 805 806 807 807 808 809 810 810 811 811 812 813 813 814 815 816 817 819 820 821 820 820 819 820 820 821 821 821 820 821 821 821 821 820 820 819 818 818 817 817 816 814 811 809 805 801 797
698 702 706 711 716 720 724 728 732 736 739 743 746 750 753 756 759 761 764 766 768 770 772 774 775 776 778 780 781 783 784 785 787 788 791 793 796 799 801 802 803 804 805 806 806 807 807 808 808 809 809 811 812 814 814 816 817 818 818 818 817 817 818 818 819 818 818 818 819 819 818 817 816 815 815 814 814 813 813 812 810 808 804 801 798
694 699 704 710 714 717 721 724 728 732 736 739 743 747 750 753 755 758 760 762 765 767 768 770 771 773 774 776 777 779 780 782 783 784 786 789 791 794 797 798 799 800 801 802 803 803 804 804 804 804 805 807 809 810 812 813 814 815 816 815 814 814 815 816 816 816 817 817 817 816 815 815 814 813 813 812 812 811 811 810 808 806 804 800 797
694 699 703 707 711 715 718 721 725 729 733 737 740 744 746 749 752 754 756 759 761 763 765 766 768 769 771 772 773 774 776 777 778 779 781 784 786 789 792 793 795 796 798 799 799 800 800 800 801 801 802 803 805 807 808 809 810 812 813 813 812 812 813 814 814 814 815 815 814 814 813 812 812 811 811 811 811 810 809 808 806 804 802 799 795
693 696 700 705 709 712 716 719 723 727 731 734 737 740 743 746 748 751 753 755 757 759 761 763 764 766 767 768 769 770 772 773 774 775 777 779 781 784 786 788 791 793 794 795 796 796 797 797 798 799 799 800 802 803 805 806 807 808 809 809 809 810 810 811 812 812 813 813 812 812 811 811 810 810 810 810 809 808 807 806 804 802 800 797 795
690 694 698 702 706 710 714 717 721 725 728 731 734 737 740 743 745 748 750 752 754 756 758 760 761 762 763 765 766 767 768 770 771 772 773 775 777 779 781 784 787 789 791 792 793 793 794 795 796 796 797 798 799 800 801 802 803 804 805 806 806 807 808 809 809 809 810 810 810 810 810 810 809 809 809 808 807 806 805 803 802 799 797 795 793
688 692 696 700 704 707 711 714 718 721 725 728 731 734 737 740 742 745 747 749 751 753 755 757 758 759 760 761 762 763 765 766 767 768 769 771 773 775 777 780 783 786 788 789 790 791 792 792 793 794 794 796 797 798 798 799 800 801 802 803 804 805 806 807 807 807 807 807 808 808 808 808 808 808 807 806 805 804 803 801 799 797 794 792 790
686 690 694 697 701 705 708 712 715 718 721 725 727 730 734 736 739 741 744 746 748 749 751 753 754 755 756 757 758 759 761 762 763 763 765 768 770 771 774 777 780 783 785 787 788 789 789 789 790 791 792 793 794 795 796 796 797 798 799 800 802 803 804 805 805 805 805 805 806 807 806 806 806 806 805 804 803 802 801 799 797 795 793 790 787
685 688 692 695 699 703 706 709 712 715 718 721 724 727 730 732 735 738 740 742 744 746 747 749 750 751 752 753 754 755 757 758 760 760 761 764 766 768 771 774 777 780 782 784 785 786 786 787 788 789 790 792 793 793 794 794 795 796 797 799 800 801 802 802 803 804 804 804 805 805 805 804 804 804 803 802 801 801 800 798 797 795 793 790 786
684 687 691 694 698 701 704 707 710 713 715 718 721 723 726 728 731 733 735 737 739 741 743 744 745 747 748 749 750 752 753 755 756 757 758 760 763 765 768 771 774 776 778 780 782 784 785 786 787 788 789 790 791 791 792 793 794 795 796 797 799 799 800 800 802 803 803 803 803 803 803 803 803 803 802 801 801 801 799 798 797 795 793 790 787
684 687 690 693 696 699 702 704 707 710 712 715 717 719 721 724 726 727 729 731 733 736 738 739 741 742 744 745 746 748 749 750 752 754 756 757 759 761 763 766 769 771 773 776 779 782 783 783 785 787 787 788 789 790 790 792 793 794 795 796 797 798 798 799 800 802 802 802 802 802 802 802 802 802 801 800 800 799 798 797 796 795 792 790 787
683 686 689 692 694 697 699 702 704 706 709 711 714 716 717 719 721 723 725 727 729 731 733 735 737 738 739 741 742 743 744 746 748 750 752 754 756 758 759 762 764 766 769 772 776 779 780 781 783 785 785 786 788 789 790 791 792 793 794 795 796 797 797 798 799 800 801 801 801 801 801 801 801 801 800 799 799 798 797 796 795 793 791 789 787
682 685 687 689 692 694 696 699 701 703 705 708 710 712 714 716 718 720 722 724 726 729 730 732 734 735 736 738 739 741 742 744 746 748 750 752 755 756 758 759 761 763 765 769 773 776 777 778 780 781 782 784 785 786 788 789 790 791 792 793 795 795 796 798 798 799 800 800 800 800 800 800 800 800 799 798 798 797 796 795 794 792 790 788 786
680 682 684 686 688 691 693 695 698 700 702 704 707 709 712 714 716 718 720 722 724 727 729 730 732 733 734 736 738 740 742 743 745 748 749 752 753 755 757 758 759 761 763 766 770 772 774 775 776 777 779 781 781 783 785 786 788 789 791 792 793 794 795 797 797 798 799 799 799 799 800 800 800 799 799 798 796 795 794 793 792 791 789 787 785
679 680 682 684 686 689 691 693 695 697 699 701 704 706 709 712 715 717 719 720 722 724 727 728 730 731 733 735 737 739 741 742 744 746 748 750 752 753 755 756 758 760 761 764 767 768 770 771 772 773 775 777 778 781 783 784 785 787 789 790 791 793 794 795 796 797 798 797 798 798 799 799 799 799 798 797 796 794 792 791 790 789 788 786 784
678 680 682 683 685 687 689 690 692 694 696 698 700 703 706 709 711 714 717 719 721 723 725 726 728 729 731 733 735 737 739 741 743 744 746 748 749 751 753 754 756 758 760 762 764 765 766 768 769 770 772 774 776 779 781 782 783 785 786 788 789 791 792 793 795 796 796 796 796 797 797 797 798 798 797 797 795 793 791 790 789 788 787 785 784
677 679 680 682 685 686 687 689 692 693 694 696 697 700 703 705 707 711 714 717 719 721 723 724 726 727 729 731 733 735 737 738 740 742 744 746 747 749 750 752 754 756 758 760 761 762 764 765 767 768 770 772 775 777 778 780 782 783 784 786 788 789 790 792 793 794 794 794 795 795 796 796 796 796 796 795 794 792 790 788 788 787 786 785 783
677 679 680 681 683 684 686 689 691 693 694 695 697 698 701 703 705 708 710 713 716 718 721 723 724 725 727 728 730 732 734 736 738 740 742 743 745 746 748 750 752 754 756 758 759 760 761 763 764 767 770 772 774 776 777 778 780 782 783 785 787 788 789 791 792 792 793 793 794 794 795 795 794 794 794 794 793 791 789 787 787 786 785 785 784
676 678 679 680 681 683 685 688 689 691 693 694 695 697 698 700 703 705 707 710 713 715 718 720 722 724 725 726 728 730 732 734 736 738 739 741 743 745 747 749 751 753 755 757 758 759 760 761 764 767 770 772 774 775 776 777 779 781 783 784 786 787 788 790 791 791 792 792 792 793 794 794 793 793 792 792 791 790 788 787 786 785 785 785 784
676 676 678 680 682 683 685 687 689 690 691 692 694 695 697 699 701 703 705 708 710 712 716 719 721 723 723 724 726 728 729 732 734 736 738 740 742 744 747 749 750 752 754 756 757 757 759 761 764 767 769 770 772 773 774 776 779 780 781 783 784 785 786 788 789 790 790 790 791 792 792 792 792 792 791 790 790 788 787 786 785 784 785 784 783
677 676 678 681 684 685 687 689 690 691 691 692 693 695 697 699 701 703 705 707 709 712 716 719 721 721 722 723 725 726 728 730 733 734 737 739 741 743 745 747 748 750 751 753 755 756 757 760 761 763 764 767 770 772 774 776 778 779 781 782 782 782 784 785 787 788 789 789 789 790 790 791 791 791 790 789 788 787 786 786 785 784 784 783 782
680 679 680 683 686 688 690 691 691 692 692 693 694 696 698 699 701 703 704 707 710 714 717 718 719 720 721 722 724 725 726 729 732 734 736 738 740 742 743 745 747 749 750 752 754 756 758 759 759 761 763 766 768 771 774 776 777 779 781 782 782 782 783 785 787 787 787 788 788 789 789 790 790 790 789 788 787 786 786 785 785 784 783 782 782
684 684 685 687 689 690 691 692 692 693 693 694 695 696 697 699 701 703 705 709 712 715 716 717 718 719 720 721 723 724 726 729 731 734 736 738 740 743 744 745 747 749 751 752 753 756 758 759 760 762 766 768 769 772 774 776 777 779 781 782 782 783 784 785 786 787 786 787 787 788 789 789 789 789 788 787 786 786 785 785 785 784 783 782 782
688 688 689 691 692 692 693 693 694 694 694 695 696 697 699 700 702 705 707 710 712 714 716 717 719 720 721 723 724 726 728 730 733 735 738 740 742 744 746 747 748 749 750 751 752 754 757 759 761 764 767 769 770 772 775 776 777 779 781 782 782 783 784 785 786 786 786 786 787 787 787 788 788 787 787 786 786 785 785 784 783 782 782 781 780
691 691 692 694 694 694 694 695 695 695 696 697 698 699 700 702 704 705 707 710 712 714 717 719 721 723 724 725 727 728 730 732 734 736 739 740 742 744 746 748 749 751 751 751 752 754 756 758 761 764 766 768 770 773 775 777 777 779 780 781 782 783 783 784 784 785 785 785 786 786 786 786 786 786 785 785 784 784 783 782 781 780 780 779 778
694 695 697 697 697 696 695 695 696 697 697 698 699 701 702 703 705 706 708 711 713 716 718 720 723 725 727 728 729 730 732 735 737 739 741 741 741 742 745 747 750 752 752 753 754 755 756 757 759 761 764 766 769 772 774 776 777 778 779 780 781 782 782 783 784 785 785 785 786 786 786 785 785 784 784 783 783 782 781 781 780 779 778 777 776
698 699 700 700 698 697 696 697 698 699 700 700 701 703 704 705 706 708 710 712 715 718 720 722 724 727 729 731 731 732 735 737 740 741 742 743 743 744 746 748 750 752 753 755 756 757 757 758 759 761 763 765 767 770 772 774 776 777 779 780 781 782 783 783 784 785 786 786 786 786 785 785 784 783 782 782 782 781 780 779 778 777 777 776 775
701 701 702 701 699 698 698 699 700 702 703 704 704 705 707 708 709 710 713 715 717 720 722 725 726 729 731 733 734 735 737 739 741 742 744 746 747 748 748 750 752 753 755 757 758 759 760 761 762 763 765 766 767 770 772 774 775 776 777 779 780 781 782 783 784 784 785 786 786 785 784 784 783 782 781 781 781 780 779 778 777 776 775 775 774
704 703 703 702 701 700 700 701 703 705 706 707 708 709 710 711 713 714 716 717 720 722 725 727 730 731 733 735 736 738 739 742 743 744 746 749 750 751 752 753 754 755 757 758 760 760 761 763 764 764 766 767 768 771 773 774 775 776 777 778 779 781 782 783 784 784 785 785 785 785 784 783 783 782 781 781 781 779 778 777 776 775 774 773 772
706 706 705 705 704 703 703 704 706 707 709 710 711 712 713 715 716 718 719 721 723 725 727 729 732 733 735 737 739 740 742 745 746 747 749 751 752 753 754 755 756 758 759 760 761 761 762 763 764 765 766 768 770 772 773 775 776 777 778 779 780 781 782 783 783 784 784 784 784 784 784 783 782 781 781 780 780 778 778 777 776 774 774 772 771
710 709 709 708 708 707 707 708 710 711 713 714 715 716 717 718 720 722 723 725 726 727 729 731 734 736 737 739 741 743 745 747 748 750 751 753 754 755 756 757 759 760 761 761 762 763 763 764 765 766 768 770 771 773 774 776 777 778 779 781 782 782 783 783 783 783 783 783 783 784 783 783 782 781 780 780 779 778 777 776 774 773 773 771 770
714 714 713 713 712 712 712 713 715 716 718 719 721 722 722 723 724 725 727 728 729 731 732 734 736 739 741 742 744 746 748 749 750 752 753 754 756 757 759 760 761 762 763 764 765 765 766 767 768 769 770 772 773 775 776 777 779 780 781 782 783 783 783 783 783 784 783 783 783 784 783 782 782 781 780 780 779 778 777 776 774 773 772 771 769
719 718 718 717 717 716 717 718 720 721 723 724 725 727 728 728 729 729 730 732 733 735 736 738 740 742 744 746 748 750 751 752 754 755 756 757 759 760 761 762 763 764 764 766 767 768 769 770 771 772 774 775 776 778 779 780 781 782 783 783 784 784 784 784 784 783 783 783 783 783 783 782 782 781 780 780 779 778 777 776 775 774 773 771 770
722 722 722 721 721 721 722 723 725 727 728 729 730 731 733 733 734 735 735 736 737 739 741 743 745 747 748 750 752 753 753 755 756 758 759 760 761 762 763 764 765 766 767 768 769 771 772 773 774 776 777 778 779 780 781 782 783 784 784 784 785 784 784 784 784 783 783 782 782 782 782 781 781 780 780 779 778 777 777 776 775 774 773 772 771
Wind_Speed
33 31 30 28 27 27 28 28 27 25 24 24 23 22 22 22 20 19 19 19 18 18 18 18 17 17 17 17 17 17 16 16 16 15 15 15 14 12 11 11 12 12 11 12 11 11 11 11 11 11 10 10 9 9 9 8 8 8 8 9 9 9 10 11 11 12 12 12 13 13 13 13 14 13 13 14 13 13 16 18 20 20 20 21 22
33 32 31 30 29 29 28 27 27 26 25 24 23 22 22 22 21 20 19 19 19 19 18 18 18 18 17 17 17 17 16 17 16 16 16 16 15 14 13 13 13 12 12 12 13 12 12 12 12 12 11 11 11 10 10 9 9 9 9 9 9 10 10 11 12 13 13 13 13 14 13 13 14 13 13 14 14 14 16 18 19 19 20 22 23
33 32 31 31 31 30 29 28 28 28 26 25 25 24 23 22 22 21 21 20 20 20 19 18 18 18 18 17 17 17 17 17 17 17 17 17 17 16 14 14 14 14 13 13 13 13 13 13 13 12 11 11 12 11 11 10 10 10 10 10 10 11 11 12 13 14 15 14 12 13 14 13 14 15 15 16 16 16 18 19 19 19 21 23 25
33 32 32 31 31 30 29 29 29 29 27 26 26 26 24 22 22 23 22 20 20 20 20 19 19 19 19 19 18 18 18 18 17 17 17 17 17 17 15 15 15 15 14 13 13 13 13 13 13 12 11 12 12 11 11 11 10 10 10 11 11 12 11 12 13 14 15 14 13 13 14 14 15 15 15 15 16 17 19 21 21 22 24 25 26
33 33 32 31 31 30 30 30 29 29 29 27 27 27 25 23 23 23 23 22 21 20 20 20 20 20 20 20 19 19 19 18 18 17 17 17 17 17 16 16 16 15 15 14 13 13 13 13 13 12 12 12 12 11 11 11 10 10 10 10 10 11 11 11 13 14 15 16 15 14 14 14 15 15 15 15 15 16 18 20 22 24 28 28 26
33 33 32 32 32 31 31 30 30 30 29 28 27 27 26 24 24 23 24 24 22 21 20 21 22 22 22 20 20 20 19 19 19 18 17 17 17 17 16 16 16 16 16 15 15 14 14 14 13 13 13 13 13 12 11 11 11 11 11 11 11 11 11 12 12 13 15 16 16 15 14 14 14 14 13 13 15 16 18 20 22 24 28 29 27
33 32 32 32 32 32 32 31 31 30 29 28 27 26 27 26 25 24 24 24 24 23 22 22 22 23 23 21 20 20 20 20 19 19 19 18 17 17 16 16 16 16 16 16 16 16 15 15 14 14 15 15 14 13 12 11 12 12 12 11 11 11 11 12 12 13 14 15 15 14 13 13 14 14 14 14 16 17 18 21 23 24 27 31 31
33 32 32 32 32 33 32 31 30 29 29 28 27 26 26 26 25 24 23 24 24 24 23 23 22 22 22 22 21 20 20 20 20 20 20 19 18 17 17 17 16 16 16 16 16 16 16 16 16 16 16 16 15 14 12 11 11 11 12 11 10 10 11 11 11 12 13 13 14 14 14 14 14 16 16 16 16 16 16 19 22 24 28 32 31
33 32 32 32 32 32 31 30 29 29 28 27 27 26 26 26 25 24 24 24 24 24 24 23 22 22 21 21 21 20 20 20 21 21 21 20 19 18 17 17 17 17 16 16 16 17 17 17 17 17 16 17 18 17 15 14 13 12 12 11 11 11 11 12 12 13 14 14 14 15 15 15 15 16 17 17 18 18 17 19 22 26 28 30 28
33 32 32 32 31 31 30 29 29 29 28 28 27 27 26 25 25 25 24 24 23 23 24 23 23 22 21 21 21 21 21 21 22 24 23 21 19 18 18 17 17 17 17 17 17 17 18 18 18 17 18 20 22 22 21 20 18 17 16 15 13 13 13 13 14 15 15 15 15 15 15 16 16 16 18 20 19 16 16 20 22 23 25 27 29
33 33 32 31 30 30 30 29 29 29 29 28 28 27 26 25 25 25 25 24 23 23 23 24 23 22 22 22 22 22 22 22 24 27 27 25 21 18 17 18 17 17 18 18 18 18 18 18 17 17 18 20 23 24 23 22 20 20 19 18 17 17 16 16 15 15 15 16 16 15 15 16 16 17 19 21 20 17 20 24 24 22 22 24 27
32 31 30 30 30 30 30 29 29 29 29 28 27 27 27 25 25 25 24 24 24 23 23 24 24 23 22 22 22 23 23 23 26 28 28 28 25 21 18 17 17 18 18 18 18 18 18 18 17 17 17 18 19 19 19 20 20 19 19 18 18 19 19 20 19 18 18 17 16 16 16 17 17 17 18 21 25 27 26 23 19 19 21 22 24
31 30 30 30 30 30 30 29 28 29 29 28 27 27 27 26 25 25 25 24 23 23 23 23 23 23 22 22 22 23 22 23 27 29 29 28 28 25 21 18 18 18 18 18 18 17 17 17 17 17 16 17 18 17 17 18 19 19 19 18 18 18 18 18 19 20 20 19 18 17 17 18 18 17 18 22 29 34 30 23 18 19 24 26 28
30 30 30 30 29 29 29 29 29 28 28 28 27 27 27 27 26 25 24 23 23 23 24 23 23 23 23 23 23 22 21 22 26 28 29 28 28 27 25 21 19 19 18 18 18 17 17 17 16 17 16 16 16 16 17 16 16 16 16 16 16 16 16 15 15 15 17 18 19 18 17 18 18 17 16 18 26 32 32 28 24 25 29 31 31
29 29 30 29 29 29 29 29 28 27 27 28 27 27 27 27 27 25 24 23 24 23 24 24 23 23 24 23 23 22 22 24 25 27 28 28 27 27 27 23 21 20 20 19 19 18 18 18 17 17 17 16 17 17 16 14 13 13 14 15 15 15 15 15 14 13 14 16 17 18 17 16 16 16 15 16 23 30 31 30 29 28 29 30 28
28 29 29 29 29 30 30 29 28 27 27 28 28 27 27 26 26 26 24 23 23 22 23 23 23 24 24 24 24 23 23 25 27 28 28 27 26 27 27 24 21 21 20 20 20 20 19 19 18 18 18 17 18 19 19 16 14 14 15 16 16 15 15 15 14 14 15 16 16 17 18 18 18 20 20 19 23 26 25 26 26 24 22 24 25
29 29 30 30 30 30 30 29 29 28 28 28 28 28 27 26 26 25 24 23 22 22 23 23 23 24 25 25 25 24 24 25 27 29 29 28 27 27 27 23 21 22 21 20 20 20 20 21 20 19 19 19 19 20 20 19 17 16 17 17 17 17 15 14 15 16 16 15 15 15 17 18 19 19 17 15 16 16 17 20 21 19 19 20 21
29 29 30 31 30 30 30 29 29 29 28 28 28 27 26 26 25 25 25 24 23 23 22 22 23 24 25 25 25 24 23 24 26 28 28 29 28 27 24 22 21 21 21 20 20 20 21 23 23 22 20 19 19 18 19 19 17 16 17 17 17 17 16 15 14 13 11 10 10 12 15 18 17 15 12 10 9 9 13 16 16 17 19 19 21
30 30 30 30 29 29 29 29 29 29 28 28 27 27 26 25 25 25 25 25 24 23 22 21 22 22 23 24 25 25 23 23 25 27 28 28 29 27 23 21 21 21 20 20 20 20 21 22 25 27 26 23 21 19 19 19 17 16 16 17 17 17 15 13 11 9 8 10 13 16 17 16 14 11 10 9 9 9 12 14 15 16 18 20 22
30 29 28 28 27 27 28 29 29 28 28 27 26 26 25 24 24 24 24 23 23 22 22 21 21 21 21 22 24 25 24 23 24 27 28 29 30 29 25 22 21 21 20 19 19 19 20 21 22 26 28 27 25 23 23 23 21 18 17 17 17 16 14 12 11 12 13 13 15 16 14 11 9 7 7 7 7 7 8 10 13 15 17 20 21
26 26 26 27 27 27 27 28 28 28 26 26 25 25 25 24 24 24 23 22 22 22 22 21 20 20 20 21 22 23 24 24 25 27 28 29 30 30 28 24 22 20 19 19 19 18 19 19 19 21 23 23 21 21 21 23 23 22 20 19 19 19 17 15 15 14 13 12 12 12 9 7 7 6 6 6 6 6 7 10 12 13 15 18 19
24 25 27 27 26 26 26 26 26 25 24 25 25 24 24 23 23 23 22 22 22 22 22 21 20 20 19 20 21 21 22 24 25 27 29 29 30 31 31 27 24 22 19 19 19 18 17 17 16 17 18 18 17 16 16 16 18 20 20 20 20 21 20 18 17 14 11 9 8 7 6 5 6 6 6 7 7 7 9 10 12 13 15 16 16
25 26 27 27 26 25 25 24 24 24 24 24 24 24 23 22 22 22 22 21 21 21 21 20 19 19 18 19 19 20 20 22 25 27 28 29 30 32 32 30 28 25 21 19 19 17 16 15 15 15 16 16 15 14 13 13 14 15 16 16 17 18 17 16 15 13 10 6 4 4 4 4 5 5 5 6 7 9 11 11 12 14 15 16 16
26 26 27 27 26 25 24 24 24 24 24 24 23 23 23 22 22 22 22 21 20 20 20 21 20 19 19 19 19 20 21 22 25 28 29 29 30 31 31 31 31 29 25 21 19 18 16 16 17 16 15 15 15 13 12 13 13 13 13 14 14 13 12 11 11 10 7 4 3 4 4 3 3 4 5 7 8 11 12 12 13 14 15 17 17
25 25 25 26 25 24 24 24 24 24 24 24 23 23 23 22 22 22 23 22 21 20 20 21 21 21 20 20 19 21 22 21 23 26 28 28 29 31 31 30 31 31 28 23 20 20 19 17 16 15 14 14 13 12 12 12 13 12 12 11 10 9 9 9 8 7 5 4 4 4 3 2 2 4 6 8 10 11 12 13 13 14 15 16 18
24 23 24 24 24 24 23 23 23 23 24 24 23 23 23 23 22 22 23 23 22 21 21 22 21 21 20 20 20 20 21 20 21 22 25 27 28 29 30 29 29 30 30 27 24 23 21 18 15 13 14 13 11 11 11 12 12 12 10 9 9 8 8 8 8 7 6 5 4 3 2 1 3 5 7 9 9 9 10 12 13 13 13 15 17
21 21 22 22 22 23 23 22 22 22 23 23 22 22 23 23 22 23 23 23 22 21 21 21 22 21 20 19 19 20 20 20 20 19 20 23 25 27 29 30 29 30 32 32 29 24 21 20 18 16 15 14 12 11 12 12 12 12 11 9 8 8 9 9 8 7 6 5 4 2 0 1 3 4 5 6 6 7 8 10 11 12 12 13 13
19 20 21 21 21 22 22 22 21 21 22 23 22 22 23 24 23 24 24 23 22 22 21 20 21 21 20 20 20 20 21 21 20 19 18 19 21 23 27 31 32 32 32 31 27 23 20 19 18 15 13 12 11 10 10 11 12 12 11 10 9 10 12 12 9 7 5 4 3 2 1 1 2 3 4 4 5 5 7 8 9 10 11 11 11
19 19 20 19 19 20 21 21 21 20 20 22 22 21 22 23 23 22 23 24 24 23 21 20 20 20 20 20 19 19 20 19 20 22 21 19 19 19 22 26 29 30 30 27 23 20 18 16 15 13 12 12 12 11 11 11 11 11 11 11 10 11 12 11 9 7 6 5 4 3 1 1 2 2 3 3 3 4 6 7 8 9 10 10 10
18 19 20 19 19 20 20 21 21 20 19 20 20 20 22 23 23 21 21 23 25 25 22 20 19 19 19 19 18 17 17 15 16 20 21 21 20 18 18 20 22 23 25 25 22 19 18 17 16 15 15 14 14 13 13 13 12 11 12 12 11 11 11 10 8 8 7 5 4 3 1 1 1 2 2 3 3 3 4 6 7 8 9 9 10
18 18 19 19 20 20 19 19 20 20 19 18 18 17 18 20 21 21 21 21 24 27 25 22 20 19 18 16 14 14 15 13 13 15 17 19 20 19 18 18 18 18 21 23 22 20 18 18 17 17 17 16 15 15 14 14 13 13 13 13 12 11 10 9 8 8 7 5 4 3 1 1 1 2 2 3 3 3 4 5 6 7 8 8 10
16 16 16 18 19 20 19 18 19 20 19 19 18 17 16 17 18 18 19 19 21 24 26 25 23 21 19 16 13 11 13 13 13 13 12 14 16 18 19 19 18 18 19 20 20 18 18 18 18 18 18 17 16 16 15 14 14 14 14 14 12 11 10 10 9 8 6 5 4 3 2 2 2 2 2 3 3 3 4 5 6 8 9 9 10
15 14 14 15 16 17 17 16 17 18 19 18 18 18 18 18 16 15 15 16 16 19 22 24 25 23 22 20 17 14 13 13 13 13 12 12 13 15 18 19 18 17 19 20 18 17 18 19 18 18 18 17 16 16 16 15 16 15 14 14 12 10 10 11 11 8 6 6 5 4 3 3 3 3 3 4 4 3 3 4 5 7 8 9 10
12 11 11 13 14 13 14 14 15 16 17 16 17 19 19 18 15 14 14 14 14 14 15 18 21 21 21 21 21 19 17 17 16 14 12 12 12 14 17 19 17 17 19 19 17 16 18 18 17 17 17 16 16 16 16 15 15 14 13 13 12 11 11 12 11 8 6 7 6 5 4 4 3 3 3 3 3 3 3 3 4 6 7 9 10
8 6 7 10 11 11 12 13 15 15 15 15 17 18 17 15 15 16 15 14 14 13 11 10 12 15 17 18 18 19 19 18 17 14 12 12 13 16 19 19 18 18 19 18 17 17 18 17 16 16 16 15 15 16 15 14 13 13 12 11 11 10 11 11 9 8 7 7 6 5 5 5 4 4 4 4 3 3 3 3 3 5 7 8 9
7 6 6 6 7 8 10 12 13 13 14 14 14 14 13 14 16 16 15 15 14 12 12 10 7 7 9 12 14 16 16 16 14 13 11 12 14 16 17 17 16 16 16 14 12 12 11 10 11 13 13 14 14 13 13 13 12 11 10 10 9 9 9 8 8 7 6 6 5 5 6 6 5 5 5 4 4 3 2 3 3 4 6 8 9
3 4 5 5 4 5 6 6 6 8 10 11 11 12 13 14 16 16 15 12 10 12 14 12 9 9 9 9 11 13 13 13 13 12 12 14 16 16 14 13 14 14 13 11 12 13 14 14 14 14 14 14 13 13 14 14 13 12 11 10 9 9 9 8 8 8 6 6 6 6 6 6 6 5 5 5 4 3 2 3 4 4 4 6 7
7 7 7 6 5 5 6 6 6 7 9 10 10 11 11 12 13 12 10 10 12 13 12 11 9 10 13 14 14 15 16 16 15 15 16 18 18 17 15 14 16 15 14 15 17 20 20 19 18 17 17 16 15 14 14 13 12 11 10 9 8 8 9 9 9 8 6 6 7 7 7 7 7 6 6 5 4 3 2 3 4 4 4 5 6
9 10 10 8 6 6 7 8 8 9 10 10 10 10 10 9 9 9 11 13 13 12 12 12 11 11 16 22 23 22 20 18 17 17 17 16 15 14 14 15 15 15 14 15 18 19 20 19 19 18 18 17 15 14 13 12 11 10 9 8 7 8 8 7 6 6 6 6 6 6 6 6 6 6 6 5 4 3 3 3 4 4 5 6 6
10 10 9 6 5 6 8 8 9 10 9 9 9 10 10 9 10 12 13 13 13 12 12 12 12 14 19 24 25 21 18 16 16 16 16 15 14 14 14 15 15 15 15 17 17 16 15 15 16 16 15 14 12 12 12 11 11 9 8 7 7 6 6 6 5 6 6 5 5 6 6 6 6 6 6 5 4 3 4 4 5 5 6 6 6
10 9 8 6 5 6 8 8 8 9 9 10 11 11 12 11 11 13 14 13 13 13 12 12 13 14 18 21 20 16 14 16 17 16 16 16 16 16 15 15 15 15 16 17 17 15 14 14 13 13 13 11 10 11 10 10 10 9 7 7 6 6 6 6 5 5 5 5 5 6 7 6 5 6 5 4 4 5 6 6 7 7 8 8 8
9 8 7 6 6 7 8 9 9 9 10 11 11 11 11 12 12 13 14 13 13 14 15 14 14 15 17 18 18 16 15 15 16 16 15 15 17 17 16 15 14 14 15 15 15 14 15 15 14 14 13 12 11 10 10 9 9 8 7 7 6 7 7 6 5 5 5 6 6 7 6 5 5 6 6 5 5 7 8 8 9 10 10 10 9
8 7 7 7 7 9 9 9 10 10 11 12 12 11 12 12 13 13 14 15 15 17 18 17 17 18 19 19 19 18 17 15 15 14 14 16 19 19 17 15 13 13 14 14 14 15 17 18 19 19 18 17 15 14 12 11 9 6 6 6 6 6 5 4 3 3 4 5 5 6 6 6 6 7 7 6 8 9 10 10 10 10 11 11 10
7 6 7 7 9 10 11 11 11 12 13 14 13 13 13 14 14 15 16 17 17 18 18 18 18 18 18 17 17 18 18 16 15 15 16 19 22 22 19 18 18 18 18 18 17 18 21 22 22 21 20 19 18 16 15 13 11 9 8 7 5 4 4 3 2 1 0 2 3 4 5 5 6 7 8 8 9 10 11 11 11 11 11 11 11
7 6 7 8 10 11 12 12 12 13 14 14 15 15 15 15 16 17 18 19 19 18 18 17 17 17 15 14 15 17 17 16 16 17 18 19 20 20 20 22 23 22 22 21 19 18 19 19 18 18 18 17 16 15 14 13 13 11 10 9 7 6 5 4 3 2 1 2 3 4 5 5 6 7 8 8 8 9 10 11 11 11 11 11 12
8 8 8 10 11 12 13 12 12 12 12 12 14 15 15 15 16 17 18 19 19 18 17 16 16 15 14 14 15 16 16 16 16 16 15 15 15 15 17 18 20 20 21 21 20 19 18 18 17 17 17 17 16 15 13 12 12 11 10 9 8 6 5 4 3 2 1 3 4 5 5 6 6 6 6 7 8 9 9 9 10 11 11 11 12
9 9 10 11 12 13 13 13 13 12 12 12 12 13 14 14 15 17 18 18 18 18 17 16 15 15 15 16 16 16 16 16 15 15 15 15 14 14 15 15 17 18 19 19 19 19 19 19 19 18 17 17 16 15 14 12 11 10 8 7 6 5 4 3 3 2 1 2 4 5 5 6 6 6 5 6 7 7 8 9 9 9 10 10 10
10 10 11 12 13 14 15 15 15 14 13 13 13 13 13 14 15 16 17 18 18 19 19 18 17 16 17 17 17 17 17 16 16 15 15 15 15 15 15 16 16 17 18 18 19 19 19 20 20 19 19 17 16 15 14 12 11 10 8 7 5 4 2 1 1 2 2 2 2 4 5 5 5 5 5 6 6 7 7 7 8 8 9 9 10
11 11 12 13 14 14 15 15 15 15 14 14 15 15 15 16 16 17 18 20 21 21 21 20 19 17 17 17 16 15 15 15 16 16 17 17 16 17 17 19 19 20 20 21 20 20 20 19 19 18 18 17 15 14 13 12 10 9 8 6 5 4 3 2 1 0 0 1 2 4 5 4 4 5 5 5 6 7 7 7 8 9 9 9 10
13 13 13 14 15 15 15 16 15 15 14 13 14 14 15 16 16 17 19 21 22 22 22 22 21 19 17 16 15 15 15 15 15 15 16 18 20 21 21 21 22 22 21 21 20 19 18 18 16 16 15 14 13 13 12 10 9 8 6 5 4 3 2 2 1 1 1 1 2 3 4 4 5 5 5 5 6 7 7 7 9 10 10 11 11
16 15 15 15 15 15 15 16 15 15 14 13 13 13 13 14 14 15 16 17 18 19 20 20 19 18 17 16 15 16 17 17 17 17 18 20 22 24 24 23 22 21 21 20 19 18 17 16 15 15 14 13 12 11 10 8 7 6 4 3 2 1 1 1 1 1 1 0 1 2 3 3 3 4 5 6 7 7 7 8 9 9 11 12 12
Wind_Direction
188 191 192 194 195 194 195 197 199 201 200 198 200 203 204 204 205 205 204 204 204 206 209 211 213 215 218 220 221 223 223 223 222 221 222 222 223 226 226 222 223 228 231 232 232 231 229 229 233 236 236 237 240 243 244 241 237 236 235 235 239 240 237 242 257 271 276 277 279 282 285 287 286 281 280 283 282 280 284 288 288 286 281 275 274
188 189 190 192 194 194 194 195 197 199 199 198 200 202 202 203 204 203 203 204 204 206 209 211 212 213 216 218 219 221 221 222 223 222 223 223 222 223 224 222 223 226 230 231 230 230 231 232 234 236 236 237 238 242 246 246 243 241 239 237 242 245 238 239 253 269 277 278 277 280 282 282 282 281 277 278 280 278 275 277 278 276 274 273 273
188 187 188 191 192 193 193 194 195 197 197 197 200 202 203 203 202 202 203 204 204 206 208 208 208 210 212 215 216 217 219 220 223 224 223 223 222 223 223 222 221 223 227 230 230 230 231 233 236 237 237 236 237 241 245 245 245 247 245 243 248 251 248 244 250 263 275 281 280 281 283 282 280 280 277 275 276 277 278 281 279 273 272 273 273
188 187 188 190 191 191 191 193 195 197 198 199 201 203 203 203 201 201 203 203 203 204 206 206 206 206 210 213 213 214 217 218 221 223 223 222 222 224 224 223 224 225 228 230 231 231 231 234 237 238 236 236 238 241 243 243 242 243 247 247 247 251 253 250 252 262 276 284 283 283 287 287 284 284 284 280 278 274 275 281 283 283 286 284 279
189 188 189 190 190 191 192 194 196 198 200 201 202 203 203 202 201 200 202 203 203 203 203 204 205 206 209 211 212 213 215 216 218 220 222 222 223 224 225 225 226 228 230 232 231 232 233 235 237 236 234 235 238 241 243 242 241 242 248 250 250 254 258 260 261 266 274 282 286 286 286 286 286 289 290 289 287 282 277 279 282 287 293 293 287
188 188 189 190 190 191 192 194 197 199 201 202 203 202 203 202 200 200 201 203 203 203 202 203 205 207 210 211 211 213 214 214 216 218 220 221 222 224 225 225 227 229 232 232 232 232 233 233 234 233 233 235 238 241 240 239 240 242 246 249 251 256 260 262 263 266 272 278 282 284 285 286 288 291 292 292 294 292 289 287 284 283 290 294 292
188 188 189 190 190 191 192 194 196 198 200 202 202 202 202 202 201 200 200 202 203 204 203 203 206 208 211 212 212 212 212 213 214 215 217 219 220 222 224 225 227 229 232 233 233 234 234 233 232 231 232 234 237 237 235 237 241 243 244 245 247 251 256 259 260 264 270 274 278 282 286 291 294 295 296 296 294 290 288 292 289 284 289 296 299
188 188 189 190 190 190 191 192 195 197 198 200 201 201 201 201 201 200 200 201 203 205 205 204 206 209 211 212 213 212 212 212 212 212 213 215 218 221 222 225 227 229 232 234 234 235 236 236 235 234 234 235 237 234 231 233 239 245 247 245 245 248 253 259 264 267 270 273 278 284 289 293 293 293 295 295 292 287 281 283 284 283 288 295 300
188 187 188 190 189 188 187 189 192 194 195 196 198 199 200 199 199 198 199 201 204 206 207 207 207 209 210 211 211 212 213 213 211 210 209 211 215 219 221 224 227 230 233 235 236 236 237 239 240 239 236 237 241 242 239 238 241 247 249 247 247 251 256 260 265 269 273 275 278 282 286 288 288 290 294 294 292 291 286 281 280 281 288 294 297
187 187 188 189 187 184 184 185 188 191 192 194 194 196 197 197 197 197 198 201 204 205 207 208 209 209 209 209 210 211 214 214 214 213 211 209 211 216 221 224 226 229 232 235 237 237 238 240 243 243 241 243 250 255 256 256 256 257 254 250 248 252 257 261 263 266 270 273 278 282 284 285 289 293 294 293 294 298 297 292 289 291 297 300 300
187 187 188 186 182 181 182 184 186 188 190 191 192 193 196 196 197 197 198 201 203 204 205 208 211 212 210 210 210 212 215 215 216 218 217 215 212 213 219 224 226 228 230 233 236 238 239 241 243 243 243 245 253 261 265 264 263 263 261 258 255 253 254 258 261 265 268 270 275 280 283 287 291 293 293 296 301 308 305 300 299 302 303 302 301
187 186 185 182 179 179 181 183 185 186 188 189 190 192 194 195 196 196 198 200 201 203 205 207 210 212 212 213 213 215 216 216 218 222 223 223 221 217 218 224 227 228 230 232 234 236 238 240 242 242 241 242 246 254 263 267 267 266 266 267 266 262 257 256 257 260 264 270 275 278 282 286 287 290 297 304 306 306 303 298 295 295 295 293 295
185 184 182 180 179 180 182 183 184 185 186 187 188 190 192 194 196 197 199 201 201 202 205 207 209 211 213 215 216 218 219 218 220 224 226 228 227 224 222 224 228 229 230 230 231 233 235 236 239 240 240 241 241 241 248 258 266 270 271 273 273 271 267 262 259 258 258 262 270 273 275 279 282 290 301 305 305 305 305 301 298 296 295 295 294
184 183 182 181 180 181 182 183 185 185 185 186 187 190 193 195 198 199 200 201 201 203 206 207 209 210 212 215 219 221 222 221 223 226 228 229 230 228 225 226 230 231 230 230 231 231 232 233 234 236 237 238 239 239 240 245 253 262 266 269 271 273 275 273 269 264 258 254 257 262 267 273 280 288 295 300 301 302 301 299 300 301 299 297 294
184 182 182 182 182 183 184 185 186 185 185 187 189 192 195 196 199 202 202 203 203 204 206 207 208 210 212 216 219 222 224 224 225 227 229 230 230 228 225 225 229 232 231 230 231 231 232 232 233 236 237 236 236 237 238 239 245 253 257 260 263 265 268 269 269 270 268 263 261 263 267 271 275 279 282 285 291 295 297 297 297 297 297 296 293
183 182 183 185 185 186 186 185 186 186 187 189 192 195 196 198 199 201 203 205 205 204 206 208 209 211 213 216 219 223 225 225 225 227 230 230 229 226 224 223 226 231 231 231 231 231 232 231 232 235 238 238 239 239 240 242 248 256 260 262 264 266 267 266 264 265 269 270 267 265 267 269 272 278 280 277 279 287 295 295 293 290 288 291 293
183 182 185 188 188 188 187 186 187 188 189 192 195 197 197 198 199 200 202 205 205 205 207 209 211 212 214 214 217 221 225 225 226 227 229 229 226 222 220 221 224 229 231 232 232 232 232 231 231 235 237 239 241 242 245 248 251 256 262 267 270 271 270 269 270 271 269 265 261 261 267 274 279 287 293 286 277 277 278 278 282 285 286 289 294
184 184 187 189 188 187 187 187 188 189 192 194 196 197 197 198 198 199 201 205 207 207 208 210 212 213 215 215 216 220 225 226 226 227 228 228 225 220 216 218 223 227 231 233 233 234 235 233 231 233 235 239 241 242 247 251 250 253 261 268 270 271 272 273 275 277 273 268 273 282 290 297 302 306 307 301 295 280 261 262 278 290 291 292 297
186 186 188 188 187 186 186 187 189 191 193 195 197 197 197 198 198 199 202 206 209 209 209 211 213 214 215 217 218 220 224 226 226 227 227 227 225 219 214 217 223 226 228 231 232 233 235 236 236 236 237 238 239 242 247 250 249 251 259 266 267 269 273 276 279 282 282 287 295 299 302 306 310 308 301 300 304 283 257 263 285 294 294 297 300
187 186 185 184 184 185 185 187 190 192 194 194 195 196 196 198 199 200 202 205 208 209 210 211 214 215 215 217 218 220 222 224 227 227 226 228 226 220 214 217 222 224 225 228 231 232 233 235 237 240 242 244 244 245 249 252 251 251 255 260 265 268 271 275 282 288 290 292 295 296 298 302 305 305 302 304 303 284 265 280 297 298 298 299 297
183 181 181 182 184 185 186 189 190 192 194 193 194 196 197 199 200 199 201 204 205 208 210 212 215 217 217 218 219 221 221 222 225 227 226 227 227 222 216 216 219 222 224 226 228 232 233 232 235 240 245 249 251 251 253 255 255 254 253 254 258 261 264 269 277 286 292 293 294 296 297 305 312 313 312 312 315 314 310 310 309 304 301 299 299
177 177 179 182 185 187 188 189 190 192 193 192 194 196 197 199 199 198 200 203 204 206 209 211 215 218 219 220 221 223 223 221 223 226 227 227 228 225 221 217 216 218 223 227 228 231 234 234 236 239 241 247 255 258 257 257 255 253 251 251 253 256 262 268 274 281 288 289 290 293 298 307 311 310 316 324 329 333 331 321 314 309 303 301 306
174 174 178 182 185 187 189 188 188 191 192 192 193 195 195 196 197 198 200 201 203 205 207 210 215 218 220 221 221 223 225 224 223 225 227 227 228 229 227 222 218 217 221 227 230 232 237 238 238 238 241 246 254 258 258 256 252 250 250 250 253 257 260 265 271 275 277 278 278 282 286 295 307 317 329 335 335 342 343 330 317 316 313 313 317
173 174 178 181 184 186 187 187 189 191 192 191 193 193 194 194 195 196 199 200 202 205 208 212 217 220 223 225 225 225 227 229 228 228 229 230 229 230 230 227 222 219 221 228 233 235 238 240 239 239 239 243 249 254 257 255 253 252 251 248 250 253 251 252 259 261 255 245 249 264 273 290 320 329 337 343 346 350 346 332 323 326 325 323 326
174 176 178 181 183 184 186 188 190 192 191 190 191 193 193 194 195 198 201 204 207 209 211 215 220 222 225 226 226 227 228 229 229 229 230 232 232 231 231 229 225 222 222 226 232 237 239 240 240 238 236 238 245 252 254 254 253 251 249 245 239 238 236 231 227 223 219 218 231 247 267 311 334 338 349 358 358 349 337 329 329 334 332 329 331
175 177 179 181 183 184 187 189 191 192 192 192 193 194 194 195 196 198 202 207 210 212 215 217 218 219 222 223 224 226 226 226 227 225 225 229 231 231 231 230 228 226 224 225 229 235 241 244 242 239 237 239 244 245 245 249 246 238 236 237 228 220 217 212 201 196 200 211 221 232 265 321 336 345 355 357 351 337 329 328 330 333 335 333 333
173 176 180 182 184 187 189 191 192 192 192 193 195 196 197 197 197 198 200 204 206 209 211 214 214 216 218 220 221 223 223 223 223 217 213 217 223 227 228 228 226 225 224 226 228 232 239 242 241 242 244 244 241 237 237 237 230 223 224 224 214 201 193 190 190 197 205 206 204 205 238 335 338 341 345 343 335 329 331 329 326 330 333 330 327
176 179 181 183 186 189 191 192 192 193 194 196 198 198 199 201 201 202 202 202 202 204 206 209 211 214 216 217 218 220 219 219 218 213 208 209 212 216 221 222 222 222 222 222 223 226 231 235 236 236 237 233 223 215 217 219 217 216 213 203 192 191 189 185 186 194 196 187 180 176 164 331 330 331 331 333 330 330 332 329 324 325 327 326 327
180 182 183 186 188 189 191 193 195 196 195 197 200 201 202 204 204 206 207 205 204 203 204 205 208 211 213 215 216 217 218 218 216 213 213 211 204 201 208 213 213 216 220 217 211 213 217 219 220 219 217 215 209 200 200 205 205 202 196 188 184 186 186 183 185 190 187 180 174 165 162 274 306 316 316 320 319 320 329 328 320 319 322 327 335
181 183 186 190 190 189 192 194 196 197 197 197 198 199 201 203 204 205 207 208 208 207 206 207 209 212 216 216 215 218 221 221 217 212 212 214 209 202 205 209 207 209 216 211 200 201 208 210 212 215 214 213 211 207 204 200 193 187 185 183 181 181 183 187 191 186 180 178 175 162 164 239 280 298 298 303 306 310 323 324 318 321 327 334 342
186 188 190 193 192 190 192 193 194 196 198 199 196 191 192 198 202 204 204 204 207 210 211 212 212 214 218 218 216 218 221 220 216 212 212 218 219 215 215 216 209 208 211 202 192 198 210 214 214 214 213 211 210 208 205 196 184 178 178 181 183 184 186 191 187 179 177 176 168 158 177 226 259 270 277 294 297 302 322 330 332 336 336 338 343
191 192 194 195 193 191 192 193 194 194 196 199 199 196 193 194 198 203 206 205 205 208 212 215 216 216 217 217 215 213 215 219 224 224 222 223 223 221 221 219 214 213 210 198 191 199 210 214 214 211 208 208 207 205 201 192 180 175 177 180 183 183 184 184 177 175 180 176 165 169 191 206 240 255 263 281 285 296 321 334 341 343 342 342 344
194 194 195 193 190 189 191 192 193 194 194 195 196 200 203 201 193 192 199 204 206 208 212 216 219 220 220 221 219 217 219 224 231 238 239 233 223 217 218 217 216 214 204 194 195 206 209 210 212 209 203 203 203 199 193 184 177 176 179 180 178 174 177 181 178 172 172 171 172 185 198 199 219 239 253 270 277 292 315 326 339 345 344 343 343
190 190 191 190 186 187 192 197 201 203 202 198 196 202 206 204 197 193 193 195 201 207 212 217 222 224 226 226 225 226 229 234 240 246 245 234 220 212 207 204 203 202 197 193 199 207 206 205 206 204 200 198 192 185 180 174 174 175 175 171 167 162 166 175 177 173 172 177 183 193 201 205 217 228 243 265 276 292 313 324 340 349 348 345 344
172 166 171 180 181 181 190 202 208 209 208 203 202 204 202 201 206 209 206 201 200 196 193 204 218 223 226 226 225 225 229 232 236 238 235 227 217 206 194 184 180 185 193 197 201 203 203 202 198 192 189 183 174 170 168 164 165 167 163 158 157 158 163 173 178 177 181 190 193 197 203 211 220 227 236 252 267 289 322 339 345 353 354 349 344
169 160 156 169 178 184 192 200 205 208 206 201 199 200 199 202 209 212 212 212 203 174 153 158 174 191 207 215 215 214 216 219 219 219 218 214 204 193 183 176 174 178 185 190 189 183 177 169 163 164 166 164 158 154 152 148 149 152 152 150 154 159 165 173 177 177 187 198 198 200 210 217 221 229 237 242 250 267 311 339 339 349 356 346 336
145 145 149 155 162 167 165 167 181 193 193 191 196 203 204 205 208 209 208 203 173 136 133 143 144 137 145 164 180 187 189 193 196 191 183 180 178 175 172 171 168 164 164 163 157 146 136 133 136 139 141 143 143 143 145 148 151 153 151 149 153 161 169 176 178 179 190 202 203 207 219 222 222 233 242 243 249 267 303 332 333 338 342 331 326
50 62 88 105 115 129 132 131 144 162 170 176 186 192 194 196 199 195 176 141 122 123 134 141 135 129 130 136 149 160 160 157 159 157 156 161 165 165 165 165 161 155 151 152 152 147 141 142 146 146 144 144 146 148 149 148 149 151 152 151 155 163 170 176 181 185 196 208 208 210 219 223 223 232 243 243 246 263 289 314 326 331 331 330 336
54 66 84 96 110 134 143 145 150 156 161 167 170 170 173 178 171 148 123 115 123 138 144 138 134 138 137 137 142 148 148 146 147 147 149 154 157 156 156 154 149 147 143 140 141 142 141 143 146 147 148 149 150 149 148 143 140 145 153 156 156 159 165 173 183 194 204 213 215 214 221 229 230 233 244 249 252 262 284 302 312 318 323 332 339
59 69 82 94 115 132 136 139 144 147 148 145 140 136 132 127 120 116 119 128 135 138 136 135 137 142 145 146 148 149 147 147 148 147 145 143 141 143 144 138 135 139 138 134 133 135 135 136 137 139 143 145 143 142 145 144 143 149 158 163 163 163 171 186 199 206 210 215 219 219 224 232 234 237 243 251 261 276 288 292 294 298 305 313 318
63 73 79 89 110 125 126 122 120 126 129 126 123 121 117 113 114 119 124 126 126 126 127 131 134 141 148 151 149 144 138 138 139 137 135 132 129 131 132 130 132 138 138 134 134 134 132 133 132 133 136 137 134 135 139 141 143 151 159 164 168 174 180 192 206 218 223 223 225 229 232 234 241 250 255 260 271 277 276 278 285 292 295 300 306
61 70 75 84 97 106 109 105 102 104 110 111 110 113 115 116 117 119 118 119 123 125 125 124 127 136 147 149 142 130 122 122 126 128 128 127 125 123 122 123 128 133 133 132 132 132 131 130 129 129 131 130 127 132 139 141 144 153 161 166 181 195 198 199 207 221 231 233 234 240 245 245 245 249 254 261 273 277 278 282 288 290 291 295 299
55 64 69 79 87 90 92 96 97 96 98 100 101 104 109 111 113 115 117 120 123 125 124 122 122 127 134 139 135 124 114 114 122 124 122 122 122 119 114 111 113 116 118 120 124 129 132 134 136 139 141 139 134 133 135 132 126 126 138 153 174 191 195 195 197 209 233 242 241 245 252 257 258 260 265 273 279 281 281 283 285 286 288 293 296
55 64 68 72 79 82 82 86 91 93 94 96 98 101 105 108 111 114 116 117 119 120 121 120 120 122 126 128 123 114 111 115 119 117 115 118 119 116 111 110 112 113 113 112 117 125 131 133 134 135 135 136 135 135 136 133 125 115 112 118 122 122 123 122 108 85 355 286 268 261 264 269 274 275 277 279 280 281 281 281 281 284 287 290 292
54 55 59 63 68 74 77 81 88 93 95 98 100 102 105 108 111 112 112 112 112 111 111 112 114 115 116 111 105 103 106 109 109 108 109 112 112 111 114 117 120 120 118 115 114 115 116 116 116 115 116 120 124 126 130 132 132 127 122 118 111 105 105 110 107 89 33 332 306 290 287 287 285 284 285 285 285 286 286 286 286 287 286 284 286
55 55 58 61 63 67 71 75 80 84 89 95 99 101 103 105 107 108 109 110 109 108 108 109 108 105 103 101 98 97 99 100 99 100 101 100 98 99 105 111 115 116 116 116 115 113 111 110 109 110 111 113 114 114 115 117 119 122 124 125 125 126 131 139 143 131 14 329 312 302 299 296 290 290 294 294 290 289 290 291 291 289 287 287 290
55 58 62 65 67 69 69 69 73 77 79 83 89 93 97 100 103 105 106 106 106 106 106 104 101 98 98 97 96 97 100 100 96 94 94 93 91 92 95 100 105 109 111 114 115 114 113 113 111 110 110 112 113 112 110 108 108 111 114 120 129 140 151 167 182 191 238 294 297 299 300 297 293 295 300 300 296 296 296 293 291 291 292 292 293
52 60 67 69 70 72 70 68 70 75 76 78 83 88 92 94 96 98 101 101 100 100 101 98 95 94 94 94 95 100 103 101 96 95 95 92 90 92 98 102 105 106 110 114 115 116 117 117 117 116 116 115 113 112 111 110 111 110 108 106 110 114 117 136 185 208 213 235 282 297 296 295 298 304 310 309 306 305 303 300 301 303 302 299 296
55 62 66 66 66 69 70 70 73 76 79 84 88 88 89 89 89 92 99 103 103 104 106 104 100 97 95 95 96 99 101 100 99 102 105 104 103 105 109 113 113 113 112 111 111 112 113 113 114 115 114 112 110 110 109 108 108 108 107 105 103 96 90 87 74 31 249 306 325 314 306 306 310 310 310 310 309 307 310 315 319 318 312 305 302
60 62 62 61 62 66 68 71 74 77 81 86 89 89 91 93 92 94 98 101 102 104 108 110 109 107 103 100 100 102 103 101 98 98 103 108 111 113 115 116 116 115 113 111 110 109 108 107 107 108 109 108 108 107 106 106 108 108 107 104 102 98 103 109 103 91 98 54 9 345 338 339 335 326 324 327 327 326 328 330 329 326 321 316 313
59 61 62 61 64 67 69 70 72 74 78 83 85 86 90 94 95 98 100 100 100 102 105 106 105 103 101 100 103 108 111 109 106 107 111 114 115 117 118 117 116 115 114 114 114 113 112 112 111 110 109 109 108 107 105 103 101 96 87 78 66 21 336 306 295 294 295 321 337 329 322 323 328 332 333 332 329 327 328 327 326 325 321 315 314